Regional Weather Roundup
Issued by NWS

Home | Current Version | Previous Version | Text Only | Print | Product List | Glossary Off
Versions: 1 2 3 4 5 6 7 8 9 10 11 12 13 14 15 16 17 18 19 20 21 22 23 24 25 26 27 28 29 30 31 32 33 34 35 36 37 38 39 40 41 42 43 44 45 46 47 48 49 50

000
ASUS43 KBIS 202010
RWRND

NORTH DAKOTA REGIONAL WEATHER ROUNDUP
NATIONAL WEATHER SERVICE BISMARCK ND
300 PM CDT FRI APR 20 2018

NOTE: "FAIR" INDICATES FEW OR NO CLOUDS BELOW 12,000 FEET WITH NO
SIGNIFICANT WEATHER AND/OR OBSTRUCTIONS TO VISIBILITY.


NDZ001>003-009>011-017-202100-
NORTHWEST NORTH DAKOTA

CITY           SKY/WX    TMP DP  RH WIND       PRES   REMARKS
WILLISTON      SUNNY     64  34  32 SE16G23   30.15F
MINOT          SUNNY     58  32  37 SE15G24   30.24F
MINOT AFB      MOSUNNY   58  30  35 S18       30.22F
$$

NDZ018>021-031>035-040>046-202100-
SOUTHWEST NORTH DAKOTA

CITY           SKY/WX    TMP DP  RH WIND       PRES   REMARKS
BISMARCK       MOSUNNY   62  28  27 SE21G26   30.24F
DICKINSON      SUNNY     62  29  28 SE20G29   30.13F
GARRISON         N/A     56  34  43 SE15      30.22F
HETTINGER ARPT MOSUNNY   57  31  37 SE20G28   30.17S
$$

NDZ004>008-012>016-024-026-027-054-202100-
NORTHEAST NORTH DAKOTA

CITY           SKY/WX    TMP DP  RH WIND       PRES   REMARKS
GRAND FORKS    FAIR      52  30  43 S13       30.39F
GRND FRKS AFB  FAIR      53  28  38 S13G22    30.38F
DEVILS LAKE    FAIR      53  24  32 SE12      30.33F
$$

NDZ022-023-025-028>030-036>039-047>053-202100-
SOUTHEAST NORTH DAKOTA

CITY           SKY/WX    TMP DP  RH WIND       PRES   REMARKS
FARGO          FAIR      54  28  36 S13G20    30.38F
JAMESTOWN      PTSUNNY   55  33  43 SE12      30.32F
$$




USA.gov is the U.S. government's official web portal to all federal, state and local government web resources and services.